Location: Blazny
(46.0612°N, 84.4033°W)
Time: 22:12:33
(UTC-04:00)

ACS3 Solar Sail - Visible Passes

Search period start: 14 September 2024 00:00
Search period end: 24 September 2024 00:00
Orbit: 974 x 1033 km, 97.4° (Epoch: 14 September)

Date Brightness Start Highest point End Pass type
(mag) Time Alt. Az. Time Alt. Az. Time Alt. Az.
14 Sep 3.2 20:15:29 10° ESE 20:20:08 22° ENE 20:24:46 10° NNE visible
14 Sep 2.0 21:59:04 22° S 22:03:27 79° WSW 22:09:55 10° NNW visible
14 Sep 4.3 23:45:29 10° WSW 23:48:29 13° W 23:51:30 10° NW visible
15 Sep 2.6 20:47:26 11° SE 20:52:51 36° ENE 20:58:35 10° N visible
15 Sep 2.8 22:32:41 21° SSW 22:36:43 45° W 22:42:52 10° NNW visible
16 Sep 2.0 21:21:00 19° SE 21:25:42 60° ENE 21:32:00 10° N visible
16 Sep 3.6 23:06:15 15° SW 23:10:07 26° W 23:15:21 10° NW visible
17 Sep 3.2 20:10:51 10° ESE 20:15:23 21° ENE 20:19:54 10° NNE visible
17 Sep 1.9 21:54:29 24° S 21:58:39 81° WSW 22:05:06 10° NNW visible
17 Sep 4.3 23:40:25 10° WSW 23:43:38 14° W 23:46:51 10° NW visible
18 Sep 2.6 20:42:41 12° SE 20:47:54 34° ENE 20:53:33 10° N visible
18 Sep 2.7 22:27:55 23° SSW 22:31:43 47° W 22:37:53 10° NNW visible
19 Sep 2.0 21:16:03 20° SE 21:20:33 58° ENE 21:26:48 10° N visible
19 Sep 3.6 23:01:17 17° SW 23:04:54 27° W 23:10:13 10° NW visible
20 Sep 3.2 20:05:41 10° ESE 20:10:04 20° ENE 20:14:27 10° NNE visible
20 Sep 1.9 21:49:21 26° S 21:53:17 85° WSW 21:59:44 10° NNW visible
20 Sep 4.3 23:34:46 10° WSW 23:38:12 15° W 23:41:39 10° NW visible
21 Sep 2.6 20:37:22 12° ESE 20:42:24 33° ENE 20:47:56 10° N visible
21 Sep 2.6 22:22:36 25° SSW 22:26:09 49° W 22:32:20 10° NNW visible
22 Sep 2.0 21:10:33 21° SE 21:14:50 55° ENE 21:21:01 10° N visible
22 Sep 3.5 22:55:46 18° SW 22:59:07 28° W 23:04:31 10° NNW visible
23 Sep 3.3 20:00:00 10° E 20:04:12 19° ENE 20:08:25 10° NNE visible
23 Sep 1.8 21:43:40 27° SSE 21:47:22 89° W 21:53:47 10° NNW visible
23 Sep 4.2 23:28:53 11° WSW 23:32:12 16° W 23:35:54 10° NW visible
